When you browse on this site, cookies collect data to enhance your experience and personalize the content and advertising you see.
Visit our Privacy Policy to learn more. By continuing to use the site, you agree to this use of cookies and data.
  • En España
  • Lista de países
  • Para 7 días
  • Temperatura del agua
  • Mapa Satelital
  • El tiempo en el mapa
  • Informadores
  • user-avatar
    Iniciar sesión

    Tiempo cada hora Kropyl'nyky

    Hoy, 23 Marzo, Sábado

    Tiempo Temperatura Precipitaciones Viento Presión Humedad
    00:00 +5°C° 0 mm 2 mps 746 mmHg 91%
    01:00 +4°C° 0 mm 2 mps 746 mmHg 91%
    02:00 +4°C° 0 mm 2 mps 745 mmHg 91%
    03:00 +4°C° 0 mm 1 mps 745 mmHg 88%
    04:00 +4°C° 0 mm 1 mps 745 mmHg 85%
    05:00 +3°C° 0 mm 1 mps 745 mmHg 82%
    06:00 +3°C° 0 mm 1 mps 745 mmHg 77%
    07:00 +4°C° 0 mm 1 mps 745 mmHg 72%
    08:00 +4°C° 0 mm 1 mps 745 mmHg 67%
    09:00 +6°C° 0 mm 1 mps 745 mmHg 57%
    10:00 +7°C° 0 mm 1 mps 745 mmHg 46%
    11:00 +9°C° 0 mm 1 mps 745 mmHg 35%
    12:00 +10°C° 0 mm 1 mps 744 mmHg 33%
    13:00 +11°C° 0 mm 1 mps 744 mmHg 30%
    14:00 +12°C° 0 mm 1 mps 744 mmHg 27%
    15:00 +12°C° 0 mm 1 mps 743 mmHg 27%
    16:00 +12°C° 0 mm 1 mps 743 mmHg 27%
    17:00 +11°C° 0 mm 0 mps 743 mmHg 28%
    18:00 +9°C° 0 mm 0 mps 742 mmHg 32%
    19:00 +9°C° 0 mm 1 mps 742 mmHg 36%
    20:00 +8°C° 0 mm 1 mps 742 mmHg 39%
    21:00 +7°C° 0 mm 1 mps 742 mmHg 41%
    22:00 +7°C° 0 mm 1 mps 742 mmHg 43%
    23:00 +6°C° 0 mm 1 mps 742 mmHg 44%

    Mañana, 24 Marzo, Domingo

    Tiempo Temperatura Precipitaciones Viento Presión Humedad
    00:00 +6°C° 0 mm 1 mps 742 mmHg 44%
    01:00 +6°C° 0 mm 1 mps 741 mmHg 44%
    02:00 +5°C° 0 mm 1 mps 741 mmHg 44%
    03:00 +4°C° 0 mm 2 mps 741 mmHg 46%
    04:00 +4°C° 0 mm 2 mps 740 mmHg 47%
    05:00 +4°C° 0 mm 2 mps 740 mmHg 48%
    06:00 +5°C° 0 mm 2 mps 740 mmHg 53%
    07:00 +6°C° 0 mm 2 mps 740 mmHg 59%
    08:00 +7°C° 0 mm 3 mps 740 mmHg 64%
    09:00 +7°C° 0 mm 3 mps 740 mmHg 70%
    10:00 +7°C° 0 mm 4 mps 740 mmHg 75%
    11:00 +8°C° 0 mm 4 mps 740 mmHg 81%
    12:00 +8°C° 0 mm 4 mps 740 mmHg 75%
    13:00 +10°C° 0 mm 4 mps 740 mmHg 68%
    14:00 +11°C° 0 mm 4 mps 740 mmHg 62%
    15:00 +11°C° 0 mm 3 mps 740 mmHg 59%
    16:00 +11°C° 0 mm 3 mps 739 mmHg 55%
    17:00 +11°C° 0 mm 3 mps 739 mmHg 52%
    18:00 +10°C° 0 mm 2 mps 739 mmHg 55%
    19:00 +10°C° 0 mm 1 mps 738 mmHg 59%
    20:00 +8°C° 0 mm 1 mps 738 mmHg 62%
    21:00 +8°C° 0 mm 1 mps 738 mmHg 63%
    22:00 +6°C° 0 mm 0 mps 738 mmHg 63%
    23:00 +6°C° 0 mm 0 mps 737 mmHg 64%

    Pasado mañana, 25 Marzo, Lunes

    Tiempo Temperatura Precipitaciones Viento Presión Humedad
    00:00 +5°C° 0 mm 0 mps 737 mmHg 66%
    01:00 +6°C° 0 mm 1 mps 736 mmHg 68%
    02:00 +6°C° 0 mm 1 mps 735 mmHg 70%
    03:00 +6°C° 0.4 mm 1 mps 735 mmHg 73%
    04:00 +5°C° 0.4 mm 2 mps 734 mmHg 76%
    05:00 +5°C° 0.4 mm 2 mps 734 mmHg 79%
    06:00 +5°C° 0.3 mm 2 mps 734 mmHg 79%
    07:00 +5°C° 0.3 mm 1 mps 734 mmHg 79%
    08:00 +5°C° 0.3 mm 1 mps 733 mmHg 79%
    09:00 +7°C° 0 mm 1 mps 733 mmHg 72%
    10:00 +7°C° 0 mm 2 mps 733 mmHg 65%
    11:00 +8°C° 0 mm 2 mps 733 mmHg 58%
    12:00 +9°C° 0 mm 2 mps 733 mmHg 56%
    13:00 +9°C° 0 mm 2 mps 733 mmHg 53%
    14:00 +10°C° 0 mm 2 mps 732 mmHg 51%
    15:00 +10°C° 0 mm 2 mps 732 mmHg 51%
    16:00 +10°C° 0 mm 2 mps 731 mmHg 51%
    17:00 +10°C° 0 mm 2 mps 731 mmHg 51%
    18:00 +8°C° 0.6 mm 3 mps 731 mmHg 59%
    19:00 +7°C° 0.6 mm 3 mps 731 mmHg 68%
    20:00 +5°C° 0.6 mm 4 mps 731 mmHg 76%
    21:00 +5°C° 0.5 mm 4 mps 732 mmHg 76%
    22:00 +4°C° 0.5 mm 4 mps 732 mmHg 75%
    23:00 +4°C° 0.5 mm 4 mps 732 mmHg 75%

    26 Marzo, Martes

    Tiempo Temperatura Precipitaciones Viento Presión Humedad
    00:00 +4°C° 0.3 mm 4 mps 733 mmHg 76%
    01:00 +2°C° 0.3 mm 5 mps 734 mmHg 78%
    02:00 +2°C° 0.3 mm 5 mps 734 mmHg 80%
    03:00 +1°C° 0.1 mm 5 mps 734 mmHg 81%
    04:00 +1°C° 0.1 mm 5 mps 735 mmHg 82%
    05:00 0°C° 0.1 mm 5 mps 735 mmHg 83%
    06:00 0°C° 0 mm 5 mps 736 mmHg 84%
    07:00 0°C° 0 mm 5 mps 736 mmHg 84%
    08:00 +1°C° 0 mm 5 mps 737 mmHg 85%
    09:00 +1°C° 0.1 mm 6 mps 738 mmHg 79%
    10:00 +2°C° 0.1 mm 6 mps 739 mmHg 73%
    11:00 +3°C° 0.1 mm 7 mps 739 mmHg 66%
    12:00 +3°C° 0.1 mm 7 mps 739 mmHg 65%
    13:00 +3°C° 0.1 mm 7 mps 740 mmHg 63%
    14:00 +3°C° 0.1 mm 7 mps 740 mmHg 62%
    15:00 +3°C° 0 mm 6 mps 740 mmHg 56%
    16:00 +3°C° 0 mm 6 mps 740 mmHg 51%
    17:00 +5°C° 0 mm 5 mps 740 mmHg 45%
    18:00 +4°C° 0 mm 4 mps 741 mmHg 51%
    19:00 +2°C° 0 mm 3 mps 741 mmHg 56%
    20:00 +2°C° 0 mm 2 mps 741 mmHg 62%
    21:00 +1°C° 0 mm 3 mps 741 mmHg 65%
    22:00 0°C° 0 mm 3 mps 741 mmHg 68%
    23:00 0°C° 0 mm 3 mps 741 mmHg 71%

    27 Marzo, Miércoles

    Tiempo Temperatura Precipitaciones Viento Presión Humedad
    00:00 0°C° 0 mm 3 mps 741 mmHg 72%
    01:00 -1°C° 0 mm 4 mps 741 mmHg 74%
    02:00 -1°C° 0 mm 4 mps 741 mmHg 76%
    03:00 -1°C° 0 mm 4 mps 741 mmHg 79%
    04:00 -1°C° 0 mm 4 mps 741 mmHg 83%
    05:00 -1°C° 0 mm 4 mps 741 mmHg 86%
    06:00 0°C° 0.1 mm 5 mps 741 mmHg 85%
    07:00 0°C° 0.1 mm 5 mps 741 mmHg 84%
    08:00 +1°C° 0.1 mm 5 mps 742 mmHg 83%
    09:00 +1°C° 0.1 mm 5 mps 742 mmHg 76%
    10:00 +2°C° 0.1 mm 5 mps 742 mmHg 69%
    11:00 +4°C° 0.1 mm 4 mps 742 mmHg 62%
    12:00 +5°C° 0.1 mm 4 mps 742 mmHg 60%
    13:00 +5°C° 0.1 mm 4 mps 742 mmHg 57%
    14:00 +5°C° 0.1 mm 4 mps 743 mmHg 55%
    15:00 +5°C° 0.1 mm 3 mps 743 mmHg 55%
    16:00 +5°C° 0.1 mm 3 mps 743 mmHg 56%
    17:00 +5°C° 0.1 mm 3 mps 743 mmHg 56%
    18:00 +5°C° 0 mm 2 mps 743 mmHg 60%
    19:00 +5°C° 0 mm 1 mps 743 mmHg 65%
    20:00 +3°C° 0 mm 0 mps 744 mmHg 69%
    21:00 +4°C° 0 mm 1 mps 744 mmHg 71%
    22:00 +3°C° 0 mm 1 mps 744 mmHg 73%
    23:00 +2°C° 0 mm 2 mps 744 mmHg 75%

    28 Marzo, Jueves

    Tiempo Temperatura Precipitaciones Viento Presión Humedad
    00:00 +2°C° 0 mm 2 mps 745 mmHg 75%
    01:00 +2°C° 0 mm 2 mps 745 mmHg 75%
    02:00 +2°C° 0 mm 2 mps 745 mmHg 75%
    03:00 +1°C° 0 mm 2 mps 745 mmHg 76%
    04:00 +1°C° 0 mm 2 mps 745 mmHg 77%
    05:00 +1°C° 0 mm 2 mps 745 mmHg 78%
    06:00 +1°C° 0 mm 2 mps 746 mmHg 77%
    07:00 +2°C° 0 mm 2 mps 746 mmHg 77%
    08:00 +3°C° 0 mm 2 mps 746 mmHg 76%
    09:00 +4°C° 0 mm 2 mps 746 mmHg 75%
    10:00 +6°C° 0 mm 2 mps 747 mmHg 73%
    11:00 +7°C° 0 mm 2 mps 747 mmHg 72%
    12:00 +8°C° 0.1 mm 2 mps 747 mmHg 69%
    13:00 +8°C° 0.1 mm 2 mps 747 mmHg 65%
    14:00 +9°C° 0.1 mm 2 mps 747 mmHg 62%
    15:00 +9°C° 0.1 mm 2 mps 747 mmHg 61%
    16:00 +9°C° 0.1 mm 2 mps 747 mmHg 61%
    17:00 +9°C° 0.1 mm 2 mps 747 mmHg 61%
    18:00 +9°C° 0 mm 1 mps 747 mmHg 66%
    19:00 +8°C° 0 mm 1 mps 747 mmHg 71%
    20:00 +5°C° 0 mm 0 mps 747 mmHg 76%
    21:00 +5°C° 0 mm 0 mps 747 mmHg 78%
    22:00 +4°C° 0 mm 0 mps 748 mmHg 79%
    23:00 +4°C° 0 mm 0 mps 748 mmHg 81%
    Mostrar más